Regional Weather Roundup
Issued by NWS

Home | Current Version | Previous Version | Text Only | Print | Product List | Glossary On
Versions: 1 2 3 4 5 6 7 8 9 10 11 12 13 14 15 16 17 18 19 20 21 22 23 24 25 26 27 28 29 30 31 32 33 34 35 36 37 38 39 40 41 42 43 44 45 46 47 48 49 50
000
ASUS43 KTOP 240559
RWRKS

WEATHER ROUNDUP FOR KANSAS
NATIONAL WEATHER SERVICE GOODLAND KS
100 AM CDT TUE APR 24 2018

NOTE:  "FAIR" INDICATES FEW OR NO CLOUDS BELOW 12,000 FEET WITH NO
SIGNIFICANT WEATHER AND/OR OBSTRUCTIONS TO VISIBILITY.

KSZ001>006-013>018-027>032-041>047-240700-
NORTHWEST KANSAS

CITY           SKY/WX    TMP DP  RH WIND       PRES   REMARKS
GOODLAND       CLOUDY    47  41  80 NE5       30.12R
6HR MIN TEMP:  43; 6HR MAX TEMP:  67;

HAYS           CLEAR     49  41  74 E7        30.09R
HILL CITY      CLEAR     47  41  80 NE6       30.10R
6HR MIN TEMP:  45; 6HR MAX TEMP:  69;

RUSSELL        CLEAR     57  43  59 S3        30.07S
6HR MIN TEMP:  52; 6HR MAX TEMP:  70;

$$

KSZ061>065-074>080-084>089-240700-
SOUTHWEST KANSAS

CITY           SKY/WX    TMP DP  RH WIND       PRES   REMARKS
DODGE CITY     CLEAR     47  41  80 SE7       30.07S
6HR MIN TEMP:  47; 6HR MAX TEMP:  69;

GARDEN CITY    CLEAR     51  41  68 E12       30.06R
6HR MIN TEMP:  50; 6HR MAX TEMP:  67;

GREAT BEND     CLEAR     53  45  74 CALM      30.09
LIBERAL        CLEAR     52  43  71 SE9       30.07R
$$

KSZ066>073-081>083-090>101-240700-
SOUTHEAST KANSAS

CITY           SKY/WX    TMP DP  RH WIND       PRES   REMARKS
CHANUTE        CLEAR     47  40  76 W3        30.05R
6HR MIN TEMP:  46; 6HR MAX TEMP:  73;

COFFEYVILLE    CLEAR     51  47  86 CALM      30.04R
6HR MIN TEMP:  49; 6HR MAX TEMP:  73;

HUTCHINSON     CLEAR     46  42  86 CALM      30.07S
6HR MIN TEMP:  44; 6HR MAX TEMP:  72;

NEWTON         CLEAR     53  41  63 N6        30.07S
PARSONS        CLEAR     48  43  82 CALM      30.05R
6HR MIN TEMP:  48; 6HR MAX TEMP:  73;

WICHITA INTL   PTCLDY    56  45  66 CALM      30.06R
6HR MIN TEMP:  53; 6HR MAX TEMP:  72;

WICHITA JABRA  CLEAR     57  42  57 CALM      30.06S
6HR MIN TEMP:  54; 6HR MAX TEMP:  71;

WICHITA MCCONL CLEAR     57  41  55 CALM      30.05S
WINFIELD       CLEAR     51  49  92 CALM      30.06S
6HR MIN TEMP:  51; 6HR MAX TEMP:  71;

$$

KSZ007>012-019>026-033>040-048>060-102>105-240700-
NORTHEAST KANSAS

CITY           SKY/WX    TMP DP  RH WIND       PRES   REMARKS
CONCORDIA      CLEAR     52  37  56 CALM      30.09R
6HR MIN TEMP:  52; 6HR MAX TEMP:  71;

EMPORIA        CLEAR     52  40  63 W7        30.05R
6HR MIN TEMP:  50; 6HR MAX TEMP:  72;

LAWRENCE       CLEAR     45  36  70 NW5       30.05S
6HR MIN TEMP:  45; 6HR MAX TEMP:  74;

MANHATTAN      CLEAR     45  38  76 CALM      30.07R
6HR MIN TEMP:  44; 6HR MAX TEMP:  73;

OLATHE IND     CLEAR     52  33  48 CALM      30.06S
6HR MIN TEMP:  52; 6HR MAX TEMP:  72;

OLATHE EXE     CLEAR     59  32  36 NE5       30.05S
6HR MIN TEMP:  57; 6HR MAX TEMP:  71;

SALINA         CLEAR     52  44  74 CALM      30.08R
6HR MIN TEMP:  52; 6HR MAX TEMP:  73;

TOPEKA BILLARD CLEAR     50  39  66 CALM      30.06R
6HR MIN TEMP:  49; 6HR MAX TEMP:  74;

TOPEKA FORBES  CLEAR     49  34  56 CALM      30.05S
6HR MIN TEMP:  48; 6HR MAX TEMP:  75;

$$




USA.gov is the U.S. government's official web portal to all federal, state and local government web resources and services.